Regional Weather Roundup
Issued by NWS

Home | Current Version | Previous Version | Graphics & Text | Print | Product List | Glossary On
Versions: 1 2 3 4 5 6 7 8 9 10 11 12 13 14 15 16 17 18 19 20 21 22 23 24 25 26 27 28 29 30 31 32 33 34 35 36 37 38 39 40 41 42 43 44 45 46 47 48 49 50
000
ASUS45 KSLC 031810
RWRUT

UTAH REGIONAL WEATHER ROUNDUP
NATIONAL WEATHER SERVICE SALT LAKE CITY UT
1200 PM MDT FRI JUL 03 2015

UTZ001>011-023>025-031900-

NORTHERN UTAH

CITY           SKY/WX    TMP DP  RH WIND       PRES   REMARKS
BRIGHAM CITY   SUNNY     87  43  21 SE5       30.04F
HILL AFB       SUNNY     88  50  26 VRB1      30.07S
LOGAN          SUNNY     85  48  27 VRB5      30.05S
OGDEN          SUNNY     91  46  21 VRB3      30.04S
PROVO AIRPORT  MOSUNNY   86  48  26 SW5       30.06F
SALT LAKE CITY MOSUNNY   93  45  19 CALM      30.02S
VERNAL         SUNNY     86  41  20 VRB3      30.11F
WENDOVER       SUNNY     91  46  21 SE6       30.03F
HEBER CITY     SUNNY     86  41  20 CALM      30.14F
WEST JORDAN    SUNNY     91  45  19 E6        30.06S

$$

UTZ012>022-026-027-031900-

SOUTHERN/CENTRAL UTAH

CITY           SKY/WX    TMP DP  RH WIND       PRES   REMARKS
BLANDING       MOSUNNY   79  54  41 SE7       30.27F
BRYCE CANYON   CLOUDY    75  49  39 NW13      30.32S
CEDAR CITY     CLOUDY    84  49  29 N6        30.16S
DELTA          SUNNY     89  43  20 SW6       30.08S
HANKSVILLE     PTSUNNY   91  41  17 S6        30.05S
MILFORD        CLOUDY    79  53  40 S9        30.11S
MOAB/CYNLANDS  SUNNY     93  46  19 MISG      30.01F
PRICE          MOSUNNY   89  40  17 VRB6      30.13F
ST GEORGE      CLEAR     93  54  26 SW3       29.96S HX  91
KANAB          PTSUNNY   88  55  33 S6        30.15F

$$

REGIONAL REPORTS     COLORADO/ARIZONA

CITY           SKY/WX    TMP DP  RH WIND       PRES   REMARKS
CRAIG, CO      SUNNY     85  43  22 CALM      30.19S
GRAND JUNCTION SUNNY     87  48  25 SW5       30.06F
RIFLE          MOSUNNY   87  46  24 NW9       30.12F
MONTROSE       SUNNY     88  48  25 VRB5      30.16F
CORTEZ         SUNNY     83  54  36 S8G17     30.20F
PAGE, AZ       CLOUDY    86  51  29 VRB5      30.05S
GRAND CANYON     N/A    N/A N/A N/A MISG        N/A
KINGMAN        MOSUNNY   96  52  22 SW14G25   30.03S HX  93
FLAGSTAFF      PTSUNNY   72  54  53 SW8       30.30F

$$

REGIONAL REPORTS    NEVADA/IDAHO/WYOMING

CITY           SKY/WX    TMP DP  RH WIND       PRES   REMARKS
LAS VEGAS, NV  PTSUNNY  100  51  19 S9        29.86S HX  97
ELY            MOSUNNY   84  44  24 CALM      30.21F
ELKO           PTSUNNY   80  52  37 VRB3      30.12F
POCATELLO, ID  SUNNY     86  49  27 W13       30.05S
BURLEY         SUNNY     86  53  32 VRB7      30.01F
EVANSTON, WY   SUNNY     81  36  19 CALM      30.26F
ROCK SPRINGS   SUNNY     78  47  33 E6        30.24F
KEMMERER       SUNNY     79  43  27 SE8       30.28S

$$



USA.gov is the U.S. government's official web portal to all federal, state and local government web resources and services.